Location: Namasale
(1.5000°N, 32.6167°E)
Time: 22:23:19
(UTC+00:00)

Vanguard 3 - Pass Details

Date: 24 April 2021
Orbit: 507 x 3262 km, 33.4° (Epoch: 16 May)

Event Time Altitude Azimuth Distance (km) Brightness Sun altitude
Rises 16:58:56 0° 230° (SW) 7,225 12.5 -17.0°
Reaches altitude 10° 17:04:03 10° 228° (SW) 6,119 12.0 -18.2°
Maximum altitude 17:22:45 72° 145° (SE) 2,535 9.4 -22.7°
Enters shadow 17:30:51 26° 67° (ENE) 3,201 9.7 -24.7°
